Location: Wanzleben
(52.0609°N, 11.4408°E)
Time: 16:39:42
(UTC+00:00)

Envisat - Pass Details

Date: 28 November 2020
Orbit: 764 x 766 km, 98.1° (Epoch: 20 January)

Event Time Altitude Azimuth Distance (km) Brightness Sun altitude
Rises 03:48:40 0° 27° (NNE) 3,247 6.6 -27.9°
Reaches altitude 10° 03:51:55 10° 49° (NE) 2,315 6.1 -27.4°
Maximum altitude 03:55:01 16° 86° (E) 1,921 5.9 -26.9°
Drops below altitude 10° 03:58:06 10° 124° (SE) 2,303 6.2 -26.5°
Sets 04:01:18 0° 146° (SE) 3,223 6.7 -26.0°
